Time,TemperatureF,DewpointF,PressureIn,WindDirection,WindDirectionDegrees,WindSpeedMPH,WindSpeedGustMPH,Humidity,HourlyPrecipIn,Conditions,Clouds,dailyrainin,SoftwareType,DateUTC
2013-01-28 00:05:00,31.1,28.8,30.49,NE,34,0.0,4.0,91,0.00,,,0.02,Wunderground v.1.15,2013-01-28 05:05:00,
2013-01-28 00:10:00,31.2,28.9,30.49,NNE,33,0.0,4.0,91,0.00,,,0.02,Wunderground v.1.15,2013-01-28 05:10:00,
2013-01-28 00:15:00,31.3,29.0,30.49,NE,34,0.0,4.0,91,0.00,,,0.02,Wunderground v.1.15,2013-01-28 05:15:00,
2013-01-28 00:20:00,31.4,29.1,30.50,NE,34,0.0,4.0,91,0.00,,,0.02,Wunderground v.1.15,2013-01-28 05:20:00,
2013-01-28 00:25:00,31.4,29.1,30.49,NNE,33,0.0,4.0,91,0.00,,,0.02,Wunderground v.1.15,2013-01-28 05:25:00,
2013-01-28 00:35:00,31.6,29.3,30.50,NE,34,0.0,4.0,91,0.00,,,0.02,Wunderground v.1.15,2013-01-28 05:35:00,
2013-01-28 00:40:00,31.6,29.0,30.50,NNE,33,0.0,4.0,90,0.00,,,0.02,Wunderground v.1.15,2013-01-28 05:40:00,
2013-01-28 00:45:00,31.7,29.1,30.50,NE,34,0.0,4.0,90,0.00,,,0.02,Wunderground v.1.15,2013-01-28 05:45:00,
2013-01-28 00:50:00,31.8,29.2,30.50,NE,34,0.0,4.0,90,0.00,,,0.02,Wunderground v.1.15,2013-01-28 05:50:00,
2013-01-28 00:55:00,31.9,29.3,30.50,NNE,33,0.0,4.0,90,0.00,,,0.02,Wunderground v.1.15,2013-01-28 05:55:00,
2013-01-28 01:00:00,31.9,29.3,30.50,NNE,33,0.0,4.0,90,0.00,,,0.02,Wunderground v.1.15,2013-01-28 06:00:00,
2013-01-28 01:05:00,32.0,29.4,30.50,NE,34,0.0,4.0,90,0.00,,,0.02,Wunderground v.1.15,2013-01-28 06:05:00,
2013-01-28 01:10:00,32.0,29.4,30.49,NNE,33,0.0,4.0,90,0.00,,,0.02,Wunderground v.1.15,2013-01-28 06:10:00,
2013-01-28 01:15:00,32.1,29.2,30.49,NE,34,0.0,4.0,89,0.00,,,0.02,Wunderground v.1.15,2013-01-28 06:15:00,
2013-01-28 01:20:00,32.1,29.2,30.49,NE,34,0.0,4.0,89,0.00,,,0.02,Wunderground v.1.15,2013-01-28 06:20:00,
2013-01-28 01:25:00,32.1,29.2,30.49,NE,34,0.0,4.0,89,0.00,,,0.02,Wunderground v.1.15,2013-01-28 06:25:00,
2013-01-28 01:30:00,32.2,29.3,30.48,NNE,33,0.0,4.0,89,0.00,,,0.02,Wunderground v.1.15,2013-01-28 06:30:00,
2013-01-28 01:40:00,32.3,29.1,30.47,NE,34,0.0,4.0,88,0.00,,,0.02,Wunderground v.1.15,2013-01-28 06:40:00,
2013-01-28 01:45:00,32.4,29.2,30.47,NE,34,0.0,4.0,88,0.00,,,0.02,Wunderground v.1.15,2013-01-28 06:45:00,
2013-01-28 01:50:00,32.4,29.2,30.48,NNE,33,0.0,4.0,88,0.00,,,0.02,Wunderground v.1.15,2013-01-28 06:50:00,
2013-01-28 01:55:00,32.4,29.2,30.48,NE,34,0.0,4.0,88,0.00,,,0.02,Wunderground v.1.15,2013-01-28 06:55:00,
2013-01-28 02:05:00,32.5,29.3,30.47,NE,34,0.0,4.0,88,0.00,,,0.02,Wunderground v.1.15,2013-01-28 07:05:00,
2013-01-28 02:10:00,32.5,29.3,30.46,NE,34,0.0,4.0,88,0.00,,,0.02,Wunderground v.1.15,2013-01-28 07:10:00,
2013-01-28 02:15:00,32.6,29.4,30.46,NE,34,0.0,4.0,88,0.00,,,0.02,Wunderground v.1.15,2013-01-28 07:15:00,
2013-01-28 02:20:00,32.6,29.4,30.46,NE,34,0.0,4.0,88,0.00,,,0.02,Wunderground v.1.15,2013-01-28 07:20:00,
2013-01-28 02:25:00,32.7,29.5,30.47,NNE,33,0.0,4.0,88,0.00,,,0.02,Wunderground v.1.15,2013-01-28 07:25:00,
2013-01-28 02:30:00,32.7,29.5,30.47,NE,34,0.0,4.0,88,0.00,,,0.02,Wunderground v.1.15,2013-01-28 07:30:00,
2013-01-28 02:35:00,32.8,29.6,30.47,NE,34,0.0,4.0,88,0.00,,,0.02,Wunderground v.1.15,2013-01-28 07:35:00,
2013-01-28 02:45:00,32.8,29.6,30.46,NE,34,0.0,4.0,88,0.00,,,0.02,Wunderground v.1.15,2013-01-28 07:45:00,
2013-01-28 02:50:00,32.8,29.9,30.46,NE,34,0.0,4.0,89,0.00,,,0.02,Wunderground v.1.15,2013-01-28 07:50:00,
2013-01-28 02:55:00,32.8,29.9,30.46,NNE,33,0.0,4.0,89,0.00,,,0.02,Wunderground v.1.15,2013-01-28 07:55:00,
2013-01-28 03:00:00,32.8,29.9,30.46,NE,34,0.0,4.0,89,0.00,,,0.02,Wunderground v.1.15,2013-01-28 08:00:00,
2013-01-28 03:05:00,32.8,29.9,30.46,NE,34,0.0,4.0,89,0.00,,,0.00,Wunderground v.1.15,2013-01-28 08:05:00,
2013-01-28 03:15:00,32.8,29.9,30.46,NE,34,0.0,4.0,89,0.00,,,0.00,Wunderground v.1.15,2013-01-28 08:15:00,
2013-01-28 03:20:00,32.8,29.9,30.46,NNE,33,0.0,4.0,89,0.00,,,0.00,Wunderground v.1.15,2013-01-28 08:20:00,
2013-01-28 03:25:00,32.8,29.9,30.47,NNE,33,0.0,4.0,89,0.00,,,0.00,Wunderground v.1.15,2013-01-28 08:25:00,
2013-01-28 03:30:00,32.8,29.9,30.47,NE,34,0.0,4.0,89,0.00,,,0.00,Wunderground v.1.15,2013-01-28 08:30:00,
2013-01-28 03:35:00,32.8,29.9,30.47,NE,34,0.0,4.0,89,0.00,,,0.00,Wunderground v.1.15,2013-01-28 08:35:00,
2013-01-28 03:45:00,32.8,29.9,30.46,NE,34,0.0,4.0,89,0.00,,,0.00,Wunderground v.1.15,2013-01-28 08:45:00,
2013-01-28 03:50:00,32.8,29.9,30.46,NNE,33,0.0,4.0,89,0.00,,,0.00,Wunderground v.1.15,2013-01-28 08:50:00,
2013-01-28 03:55:00,32.8,29.9,30.46,NNE,33,0.0,4.0,89,0.00,,,0.00,Wunderground v.1.15,2013-01-28 08:55:00,
2013-01-28 04:00:00,32.9,30.3,30.47,NE,34,0.0,4.0,90,0.00,,,0.00,Wunderground v.1.15,2013-01-28 09:00:00,
2013-01-28 04:05:00,32.9,30.3,30.46,NE,34,0.0,4.0,90,0.00,,,0.00,Wunderground v.1.15,2013-01-28 09:05:00,
2013-01-28 04:10:00,32.8,30.2,30.47,NNE,33,0.0,4.0,90,0.00,,,0.00,Wunderground v.1.15,2013-01-28 09:10:00,
2013-01-28 04:20:00,32.8,30.2,30.46,NNE,33,0.0,4.0,90,0.00,,,0.00,Wunderground v.1.15,2013-01-28 09:20:00,
2013-01-28 04:25:00,32.8,30.2,30.46,NE,34,0.0,4.0,90,0.00,,,0.00,Wunderground v.1.15,2013-01-28 09:25:00,
2013-01-28 04:30:00,32.8,30.2,30.46,NE,34,0.0,4.0,90,0.00,,,0.00,Wunderground v.1.15,2013-01-28 09:30:00,
2013-01-28 04:35:00,32.8,30.2,30.46,NE,34,0.0,4.0,90,0.00,,,0.00,Wunderground v.1.15,2013-01-28 09:35:00,
2013-01-28 04:40:00,32.7,30.1,30.47,NNE,33,0.0,4.0,90,0.00,,,0.00,Wunderground v.1.15,2013-01-28 09:40:00,
2013-01-28 04:50:00,32.7,30.1,30.46,NNE,33,0.0,4.0,90,0.00,,,0.00,Wunderground v.1.15,2013-01-28 09:50:00,
2013-01-28 04:55:00,32.7,30.1,30.45,NE,34,0.0,4.0,90,0.00,,,0.00,Wunderground v.1.15,2013-01-28 09:55:00,
2013-01-28 05:00:00,32.8,30.2,30.45,NE,34,0.0,4.0,90,0.00,,,0.00,Wunderground v.1.15,2013-01-28 10:00:00,
2013-01-28 05:05:00,32.8,30.2,30.45,NE,34,0.0,4.0,90,0.00,,,0.00,Wunderground v.1.15,2013-01-28 10:05:00,
2013-01-28 05:10:00,32.8,30.5,30.45,NE,34,0.0,0.0,91,0.00,,,0.00,Wunderground v.1.15,2013-01-28 10:10:00,
2013-01-28 05:20:00,32.9,30.6,30.44,NNE,33,0.0,0.0,91,0.00,,,0.00,Wunderground v.1.15,2013-01-28 10:20:00,
2013-01-28 05:25:00,32.9,30.6,30.44,NE,34,0.0,0.0,91,0.00,,,0.00,Wunderground v.1.15,2013-01-28 10:25:00,
2013-01-28 05:30:00,32.9,30.6,30.45,NE,34,0.0,0.0,91,0.00,,,0.00,Wunderground v.1.15,2013-01-28 10:30:00,
2013-01-28 05:35:00,32.9,30.6,30.44,NE,34,0.0,0.0,91,0.00,,,0.00,Wunderground v.1.15,2013-01-28 10:35:00,
2013-01-28 05:40:00,33.0,30.7,30.44,NE,34,0.0,0.0,91,0.00,,,0.00,Wunderground v.1.15,2013-01-28 10:40:00,
2013-01-28 05:45:00,33.0,30.9,30.44,NE,34,0.0,0.0,92,0.00,,,0.00,Wunderground v.1.15,2013-01-28 10:45:00,
2013-01-28 05:50:00,33.0,30.7,30.44,NE,34,0.0,0.0,91,0.00,,,0.00,Wunderground v.1.15,2013-01-28 10:50:00,
2013-01-28 05:55:00,33.0,30.9,30.44,NNE,33,0.0,0.0,92,0.00,,,0.00,Wunderground v.1.15,2013-01-28 10:55:00,
2013-01-28 06:00:00,33.1,31.0,30.44,NE,34,0.0,0.0,92,0.00,,,0.00,Wunderground v.1.15,2013-01-28 11:00:00,
2013-01-28 06:05:00,33.2,31.1,30.45,NE,34,0.0,0.0,92,0.00,,,0.00,Wunderground v.1.15,2013-01-28 11:05:00,
2013-01-28 06:15:00,33.2,31.1,30.44,NNE,33,0.0,0.0,92,0.00,,,0.00,Wunderground v.1.15,2013-01-28 11:15:00,
2013-01-28 06:20:00,33.3,31.2,30.44,NE,34,0.0,0.0,92,0.00,,,0.00,Wunderground v.1.15,2013-01-28 11:20:00,
2013-01-28 06:25:00,33.3,31.2,30.45,NE,34,0.0,0.0,92,0.00,,,0.00,Wunderground v.1.15,2013-01-28 11:25:00,
2013-01-28 06:30:00,33.4,31.3,30.46,NE,34,0.0,0.0,92,0.00,,,0.00,Wunderground v.1.15,2013-01-28 11:30:00,
2013-01-28 06:35:00,33.4,31.3,30.46,NNE,33,0.0,0.0,92,0.00,,,0.00,Wunderground v.1.15,2013-01-28 11:35:00,
2013-01-28 06:45:00,33.5,31.4,30.45,NNE,33,0.0,0.0,92,0.00,,,0.00,Wunderground v.1.15,2013-01-28 11:45:00,
2013-01-28 06:50:00,33.6,31.5,30.45,NE,34,0.0,0.0,92,0.00,,,0.00,Wunderground v.1.15,2013-01-28 11:50:00,
2013-01-28 06:55:00,33.6,31.5,30.45,NE,34,0.0,0.0,92,0.00,,,0.00,Wunderground v.1.15,2013-01-28 11:55:00,
2013-01-28 07:00:00,33.7,31.6,30.45,NE,34,0.0,0.0,92,0.00,,,0.00,Wunderground v.1.15,2013-01-28 12:00:00,
2013-01-28 07:05:00,33.7,31.6,30.45,NNE,33,0.0,0.0,92,0.00,,,0.00,Wunderground v.1.15,2013-01-28 12:05:00,
2013-01-28 07:10:00,33.8,31.7,30.45,NNE,33,0.0,0.0,92,0.00,,,0.00,Wunderground v.1.15,2013-01-28 12:10:00,
2013-01-28 07:20:00,33.8,31.7,30.46,NE,34,0.0,0.0,92,0.00,,,0.00,Wunderground v.1.15,2013-01-28 12:20:00,
2013-01-28 07:25:00,33.8,32.0,30.46,NE,34,0.0,0.0,93,0.00,,,0.00,Wunderground v.1.15,2013-01-28 12:25:00,
2013-01-28 07:30:00,33.8,32.0,30.46,NE,34,0.0,0.0,93,0.00,,,0.00,Wunderground v.1.15,2013-01-28 12:30:00,
2013-01-28 07:35:00,33.8,32.0,30.47,NNE,33,0.0,0.0,93,0.00,,,0.00,Wunderground v.1.15,2013-01-28 12:35:00,
2013-01-28 07:40:00,33.9,32.1,30.46,NE,34,0.0,0.0,93,0.00,,,0.00,Wunderground v.1.15,2013-01-28 12:40:00,
2013-01-28 07:45:00,33.9,32.1,30.46,NE,34,0.0,0.0,93,0.00,,,0.00,Wunderground v.1.15,2013-01-28 12:45:00,
2013-01-28 07:50:00,33.9,32.1,30.46,NE,34,0.0,0.0,93,0.00,,,0.00,Wunderground v.1.15,2013-01-28 12:50:00,
2013-01-28 07:55:00,34.0,32.2,30.46,NNE,33,0.0,0.0,93,0.00,,,0.00,Wunderground v.1.15,2013-01-28 12:55:00,
2013-01-28 08:00:00,34.0,32.2,30.47,NNE,33,0.0,0.0,93,0.00,,,0.00,Wunderground v.1.15,2013-01-28 13:00:00,
2013-01-28 08:05:00,34.0,32.2,30.47,NE,34,0.0,0.0,93,0.00,,,0.00,Wunderground v.1.15,2013-01-28 13:05:00,
2013-01-28 08:10:00,34.0,32.2,30.47,NE,34,0.0,0.0,93,0.00,,,0.00,Wunderground v.1.15,2013-01-28 13:10:00,
2013-01-28 08:20:00,34.1,32.3,30.46,NE,34,0.0,0.0,93,0.00,,,0.00,Wunderground v.1.15,2013-01-28 13:20:00,
2013-01-28 08:25:00,34.2,32.4,30.46,NNE,33,0.0,0.0,93,0.00,,,0.00,Wunderground v.1.15,2013-01-28 13:25:00,
2013-01-28 08:30:00,34.3,32.5,30.46,NNE,33,0.0,0.0,93,0.00,,,0.00,Wunderground v.1.15,2013-01-28 13:30:00,
2013-01-28 08:35:00,34.4,32.6,30.46,NNE,33,0.0,0.0,93,0.00,,,0.00,Wunderground v.1.15,2013-01-28 13:35:00,
2013-01-28 08:40:00,34.4,32.6,30.46,NE,34,0.0,0.0,93,0.00,,,0.00,Wunderground v.1.15,2013-01-28 13:40:00,
2013-01-28 08:45:00,34.4,32.3,30.46,NE,34,0.0,0.0,92,0.00,,,0.00,Wunderground v.1.15,2013-01-28 13:45:00,
2013-01-28 08:55:00,34.4,32.3,30.46,NNE,33,0.0,0.0,92,0.00,,,0.00,Wunderground v.1.15,2013-01-28 13:55:00,
2013-01-28 09:00:00,34.6,32.5,30.46,NNE,33,0.0,0.0,92,0.00,,,0.00,Wunderground v.1.15,2013-01-28 14:00:00,
2013-01-28 09:05:00,34.7,32.6,30.46,ESE,108,0.0,0.0,92,0.00,,,0.00,Wunderground v.1.15,2013-01-28 14:05:00,
2013-01-28 09:10:00,34.8,32.7,30.46,ESE,108,0.0,0.0,92,0.00,,,0.00,Wunderground v.1.15,2013-01-28 14:10:00,
2013-01-28 09:15:00,35.1,33.0,30.46,ESE,108,0.0,0.0,92,0.00,,,0.00,Wunderground v.1.15,2013-01-28 14:15:00,
2013-01-28 09:25:00,35.5,33.4,30.46,ESE,107,0.0,0.0,92,0.00,,,0.00,Wunderground v.1.15,2013-01-28 14:25:00,
2013-01-28 09:30:00,35.7,33.3,30.46,ESE,107,0.0,0.0,91,0.00,,,0.00,Wunderground v.1.15,2013-01-28 14:30:00,
2013-01-28 09:35:00,35.8,33.4,30.45,ESE,108,0.0,0.0,91,0.00,,,0.00,Wunderground v.1.15,2013-01-28 14:35:00,
2013-01-28 09:40:00,36.0,33.6,30.45,ESE,108,0.0,0.0,91,0.00,,,0.00,Wunderground v.1.15,2013-01-28 14:40:00,
2013-01-28 09:45:00,36.1,33.5,30.45,ESE,107,0.0,0.0,90,0.00,,,0.00,Wunderground v.1.15,2013-01-28 14:45:00,
2013-01-28 09:50:00,36.3,33.6,30.45,ESE,108,0.0,0.0,90,0.00,,,0.00,Wunderground v.1.15,2013-01-28 14:50:00,
2013-01-28 09:55:00,36.5,33.8,30.45,ESE,107,0.0,0.0,90,0.00,,,0.00,Wunderground v.1.15,2013-01-28 14:55:00,
2013-01-28 10:00:00,36.7,34.0,30.44,ESE,108,0.0,0.0,90,0.00,,,0.00,Wunderground v.1.15,2013-01-28 15:00:00,
2013-01-28 10:05:00,36.9,34.2,30.44,ESE,108,0.0,0.0,90,0.00,,,0.00,Wunderground v.1.15,2013-01-28 15:05:00,
2013-01-28 10:10:00,37.1,34.4,30.44,ESE,107,0.0,0.0,90,0.00,,,0.00,Wunderground v.1.15,2013-01-28 15:10:00,
2013-01-28 10:15:00,37.4,34.5,30.45,ESE,107,0.0,0.0,89,0.00,,,0.00,Wunderground v.1.15,2013-01-28 15:15:00,
2013-01-28 10:20:00,37.7,34.8,30.45,ESE,108,0.0,0.0,89,0.00,,,0.00,Wunderground v.1.15,2013-01-28 15:20:00,
2013-01-28 10:25:00,38.0,34.8,30.44,ESE,108,0.0,0.0,88,0.00,,,0.00,Wunderground v.1.15,2013-01-28 15:25:00,
2013-01-28 10:30:00,38.3,35.1,30.44,ESE,107,0.0,0.0,88,0.00,,,0.00,Wunderground v.1.15,2013-01-28 15:30:00,
2013-01-28 10:35:00,38.5,35.0,30.44,ESE,108,0.0,0.0,87,0.00,,,0.00,Wunderground v.1.15,2013-01-28 15:35:00,
2013-01-28 10:40:00,38.8,35.3,30.44,ESE,108,0.0,0.0,87,0.00,,,0.00,Wunderground v.1.15,2013-01-28 15:40:00,
2013-01-28 10:45:00,39.1,35.3,30.43,ESE,107,0.0,0.0,86,0.00,,,0.00,Wunderground v.1.15,2013-01-28 15:45:00,
2013-01-28 10:50:00,39.3,35.5,30.44,ESE,107,0.0,0.0,86,0.00,,,0.00,Wunderground v.1.15,2013-01-28 15:50:00,
2013-01-28 11:00:00,40.0,35.6,30.43,ESE,107,0.0,0.0,84,0.00,,,0.00,Wunderground v.1.15,2013-01-28 16:00:00,
2013-01-28 11:05:00,40.3,35.5,30.43,ESE,108,0.0,0.0,83,0.00,,,0.00,Wunderground v.1.15,2013-01-28 16:05:00,
2013-01-28 11:10:00,40.6,35.8,30.43,ESE,108,0.0,0.0,83,0.00,,,0.00,Wunderground v.1.15,2013-01-28 16:10:00,
2013-01-28 11:15:00,41.1,36.0,30.43,ESE,107,0.0,0.0,82,0.00,,,0.00,Wunderground v.1.15,2013-01-28 16:15:00,
2013-01-28 11:20:00,41.3,36.2,30.43,ESE,108,0.0,0.0,82,0.00,,,0.00,Wunderground v.1.15,2013-01-28 16:20:00,
2013-01-28 11:25:00,41.5,36.1,30.42,ESE,108,0.0,0.0,81,0.00,,,0.00,Wunderground v.1.15,2013-01-28 16:25:00,
2013-01-28 11:35:00,41.9,36.2,30.42,ESE,108,0.0,0.0,80,0.00,,,0.00,Wunderground v.1.15,2013-01-28 16:35:00,
2013-01-28 11:40:00,42.2,36.5,30.41,ESE,107,0.0,0.0,80,0.00,,,0.00,Wunderground v.1.15,2013-01-28 16:40:00,
2013-01-28 11:45:00,42.4,36.3,30.41,ESE,107,0.0,0.0,79,0.00,,,0.00,Wunderground v.1.15,2013-01-28 16:45:00,
2013-01-28 11:50:00,42.7,36.6,30.41,ESE,108,0.0,0.0,79,0.00,,,0.00,Wunderground v.1.15,2013-01-28 16:50:00,
2013-01-28 11:55:00,42.9,36.8,30.40,ESE,108,0.0,0.0,79,0.00,,,0.00,Wunderground v.1.15,2013-01-28 16:55:00,
2013-01-28 12:05:00,43.2,36.5,30.40,ESE,108,0.0,0.0,77,0.00,,,0.00,Wunderground v.1.15,2013-01-28 17:05:00,
2013-01-28 12:10:00,43.4,36.7,30.40,ESE,107,0.0,0.0,77,0.00,,,0.00,Wunderground v.1.15,2013-01-28 17:10:00,
2013-01-28 12:15:00,43.5,36.4,30.39,ESE,108,0.0,0.0,76,0.00,,,0.00,Wunderground v.1.15,2013-01-28 17:15:00,
2013-01-28 12:20:00,43.6,36.5,30.38,ESE,108,0.0,0.0,76,0.00,,,0.00,Wunderground v.1.15,2013-01-28 17:20:00,
2013-01-28 12:25:00,43.8,36.7,30.38,ESE,108,0.0,0.0,76,0.00,,,0.00,Wunderground v.1.15,2013-01-28 17:25:00,
2013-01-28 12:30:00,44.0,36.9,30.37,ESE,107,0.0,0.0,76,0.00,,,0.00,Wunderground v.1.15,2013-01-28 17:30:00,
2013-01-28 12:40:00,44.5,37.4,30.36,ESE,108,0.0,0.0,76,0.00,,,0.00,Wunderground v.1.15,2013-01-28 17:40:00,
2013-01-28 12:45:00,44.8,37.7,30.36,ESE,108,0.0,0.0,76,0.00,,,0.00,Wunderground v.1.15,2013-01-28 17:45:00,
2013-01-28 12:50:00,45.1,38.0,30.36,ESE,107,0.0,0.0,76,0.00,,,0.00,Wunderground v.1.15,2013-01-28 17:50:00,
2013-01-28 12:55:00,45.6,38.1,30.35,WSW,256,0.0,0.0,75,0.00,,,0.00,Wunderground v.1.15,2013-01-28 17:55:00,
2013-01-28 13:00:00,46.1,38.6,30.35,WSW,246,0.0,0.0,75,0.00,,,0.00,Wunderground v.1.15,2013-01-28 18:00:00,
2013-01-28 13:05:00,46.5,38.7,30.34,WSW,246,0.0,0.0,74,0.00,,,0.00,Wunderground v.1.15,2013-01-28 18:05:00,
2013-01-28 13:10:00,46.9,39.4,30.34,WSW,238,0.0,0.0,75,0.00,,,0.00,Wunderground v.1.15,2013-01-28 18:10:00,
2013-01-28 13:15:00,47.3,39.8,30.35,WSW,239,0.0,0.0,75,0.00,,,0.00,Wunderground v.1.15,2013-01-28 18:15:00,
2013-01-28 13:20:00,47.6,40.1,30.35,WSW,238,0.0,0.0,75,0.00,,,0.00,Wunderground v.1.15,2013-01-28 18:20:00,
2013-01-28 13:25:00,47.8,40.3,30.34,WSW,239,0.0,0.0,75,0.00,,,0.00,Wunderground v.1.15,2013-01-28 18:25:00,
2013-01-28 13:30:00,48.1,40.9,30.33,WSW,239,0.0,0.0,76,0.00,,,0.00,Wunderground v.1.15,2013-01-28 18:30:00,
2013-01-28 13:40:00,48.5,40.6,30.32,WSW,239,0.0,0.0,74,0.00,,,0.00,Wunderground v.1.15,2013-01-28 18:40:00,
2013-01-28 13:45:00,48.8,41.2,30.32,WSW,239,0.0,0.0,75,0.00,,,0.00,Wunderground v.1.15,2013-01-28 18:45:00,
2013-01-28 13:50:00,49.1,41.2,30.32,WSW,238,0.0,0.0,74,0.00,,,0.00,Wunderground v.1.15,2013-01-28 18:50:00,
2013-01-28 13:55:00,49.5,41.2,30.32,WSW,239,0.0,0.0,73,0.00,,,0.00,Wunderground v.1.15,2013-01-28 18:55:00,
2013-01-28 14:00:00,49.7,41.4,30.31,SW,225,0.0,0.0,73,0.00,,,0.00,Wunderground v.1.15,2013-01-28 19:00:00,
2013-01-28 14:05:00,49.9,41.6,30.31,SW,217,0.0,0.0,73,0.00,,,0.00,Wunderground v.1.15,2013-01-28 19:05:00,
2013-01-28 14:15:00,50.3,42.0,30.30,SW,217,0.0,0.0,73,0.00,,,0.00,Wunderground v.1.15,2013-01-28 19:15:00,
2013-01-28 14:20:00,50.5,42.2,30.30,SW,217,0.0,0.0,73,0.00,,,0.00,Wunderground v.1.15,2013-01-28 19:20:00,
2013-01-28 14:25:00,50.7,42.4,30.29,SW,217,0.0,0.0,73,0.00,,,0.00,Wunderground v.1.15,2013-01-28 19:25:00,
2013-01-28 14:30:00,50.9,42.6,30.29,SW,217,0.0,0.0,73,0.00,,,0.00,Wunderground v.1.15,2013-01-28 19:30:00,
2013-01-28 14:35:00,51.2,42.5,30.29,SSW,194,0.0,0.0,72,0.00,,,0.00,Wunderground v.1.15,2013-01-28 19:35:00,
2013-01-28 14:45:00,51.6,43.2,30.28,SSW,193,0.0,0.0,73,0.00,,,0.00,Wunderground v.1.15,2013-01-28 19:45:00,
2013-01-28 14:50:00,51.8,43.1,30.28,SSW,193,0.0,0.0,72,0.00,,,0.00,Wunderground v.1.15,2013-01-28 19:50:00,
2013-01-28 14:55:00,52.1,43.3,30.29,SSW,193,0.0,0.0,72,0.00,,,0.00,Wunderground v.1.15,2013-01-28 19:55:00,
2013-01-28 15:00:00,52.3,43.5,30.29,SSW,192,0.0,0.0,72,0.00,,,0.00,Wunderground v.1.15,2013-01-28 20:00:00,
2013-01-28 15:05:00,52.4,43.6,30.29,SSW,193,0.0,0.0,72,0.00,,,0.00,Wunderground v.1.15,2013-01-28 20:05:00,
2013-01-28 15:10:00,52.6,43.8,30.29,SSW,193,0.0,0.0,72,0.00,,,0.00,Wunderground v.1.15,2013-01-28 20:10:00,
2013-01-28 15:15:00,52.7,44.3,30.28,SSW,193,0.0,0.0,73,0.00,,,0.00,Wunderground v.1.15,2013-01-28 20:15:00,
2013-01-28 15:20:00,52.9,44.5,30.28,SSW,193,0.0,0.0,73,0.00,,,0.00,Wunderground v.1.15,2013-01-28 20:20:00,
2013-01-28 15:25:00,53.0,44.6,30.28,SSW,193,0.0,0.0,73,0.00,,,0.00,Wunderground v.1.15,2013-01-28 20:25:00,
2013-01-28 15:30:00,53.1,44.7,30.28,SSW,192,0.0,0.0,73,0.00,,,0.00,Wunderground v.1.15,2013-01-28 20:30:00,
2013-01-28 15:35:00,53.2,44.8,30.28,SSW,193,0.0,0.0,73,0.00,,,0.00,Wunderground v.1.15,2013-01-28 20:35:00,
2013-01-28 15:40:00,53.3,44.9,30.28,SSW,192,0.0,0.0,73,0.00,,,0.00,Wunderground v.1.15,2013-01-28 20:40:00,
2013-01-28 15:50:00,53.4,45.0,30.28,SSW,192,0.0,0.0,73,0.00,,,0.00,Wunderground v.1.15,2013-01-28 20:50:00,
2013-01-28 15:55:00,53.5,45.1,30.28,SSW,192,0.0,0.0,73,0.00,,,0.00,Wunderground v.1.15,2013-01-28 20:55:00,
2013-01-28 16:00:00,53.5,45.1,30.28,SSW,192,0.0,0.0,73,0.00,,,0.00,Wunderground v.1.15,2013-01-28 21:00:00,
2013-01-28 16:05:00,53.5,44.7,30.27,SSW,192,0.0,2.0,72,0.00,,,0.00,Wunderground v.1.15,2013-01-28 21:05:00,
2013-01-28 16:10:00,53.5,44.7,30.27,SSW,192,0.0,0.0,72,0.00,,,0.00,Wunderground v.1.15,2013-01-28 21:10:00,
2013-01-28 16:20:00,53.6,45.2,30.27,SSW,192,0.0,0.0,73,0.00,,,0.00,Wunderground v.1.15,2013-01-28 21:20:00,
2013-01-28 16:25:00,53.6,45.2,30.27,SSW,192,0.0,0.0,73,0.00,,,0.00,Wunderground v.1.15,2013-01-28 21:25:00,
2013-01-28 16:30:00,53.6,45.2,30.27,SSW,192,0.0,0.0,73,0.00,,,0.00,Wunderground v.1.15,2013-01-28 21:30:00,
2013-01-28 16:35:00,53.6,45.2,30.27,SSW,192,0.0,0.0,73,0.00,,,0.00,Wunderground v.1.15,2013-01-28 21:35:00,
2013-01-28 16:40:00,53.7,45.6,30.27,SSW,192,0.0,0.0,74,0.00,,,0.00,Wunderground v.1.15,2013-01-28 21:40:00,
2013-01-28 16:45:00,53.7,45.6,30.27,SSW,192,0.0,0.0,74,0.00,,,0.00,Wunderground v.1.15,2013-01-28 21:45:00,
2013-01-28 16:55:00,53.7,45.6,30.26,SSW,192,0.0,0.0,74,0.00,,,0.00,Wunderground v.1.15,2013-01-28 21:55:00,
2013-01-28 17:00:00,53.8,46.1,30.26,SSW,192,0.0,0.0,75,0.00,,,0.00,Wunderground v.1.15,2013-01-28 22:00:00,
2013-01-28 17:05:00,53.8,46.1,30.26,SSW,192,0.0,0.0,75,0.00,,,0.00,Wunderground v.1.15,2013-01-28 22:05:00,
2013-01-28 17:10:00,53.8,46.1,30.27,SSW,192,0.0,0.0,75,0.00,,,0.00,Wunderground v.1.15,2013-01-28 22:10:00,
2013-01-28 17:15:00,53.8,46.1,30.26,SSW,192,0.0,0.0,75,0.00,,,0.00,Wunderground v.1.15,2013-01-28 22:15:00,
2013-01-28 17:25:00,53.7,46.0,30.26,SSW,192,0.0,0.0,75,0.00,,,0.00,Wunderground v.1.15,2013-01-28 22:25:00,
2013-01-28 17:30:00,53.7,46.0,30.26,SSW,192,0.0,0.0,75,0.00,,,0.00,Wunderground v.1.15,2013-01-28 22:30:00,
2013-01-28 17:35:00,53.6,46.2,30.26,SSW,192,0.0,0.0,76,0.00,,,0.00,Wunderground v.1.15,2013-01-28 22:35:00,
2013-01-28 17:40:00,53.6,46.2,30.26,SSW,192,0.0,0.0,76,0.00,,,0.00,Wunderground v.1.15,2013-01-28 22:40:00,
2013-01-28 17:45:00,53.5,46.1,30.26,West,259,0.0,0.0,76,0.00,,,0.00,Wunderground v.1.15,2013-01-28 22:45:00,
2013-01-28 17:50:00,53.4,46.0,30.26,West,259,0.0,0.0,76,0.00,,,0.00,Wunderground v.1.15,2013-01-28 22:50:00,
2013-01-28 17:55:00,53.3,45.9,30.26,West,259,0.0,0.0,76,0.00,,,0.00,Wunderground v.1.15,2013-01-28 22:55:00,
2013-01-28 18:05:00,53.1,45.7,30.26,West,259,0.0,0.0,76,0.00,,,0.00,Wunderground v.1.15,2013-01-28 23:05:00,
2013-01-28 18:10:00,52.9,45.5,30.26,West,259,0.0,0.0,76,0.00,,,0.00,Wunderground v.1.15,2013-01-28 23:10:00,
2013-01-28 18:15:00,52.7,45.3,30.26,West,259,0.0,0.0,76,0.00,,,0.00,Wunderground v.1.15,2013-01-28 23:15:00,
2013-01-28 18:20:00,52.5,45.2,30.26,West,259,0.0,0.0,76,0.00,,,0.00,Wunderground v.1.15,2013-01-28 23:20:00,
2013-01-28 18:25:00,52.3,45.0,30.27,West,259,0.0,0.0,76,0.00,,,0.00,Wunderground v.1.15,2013-01-28 23:25:00,
2013-01-28 18:30:00,52.1,44.8,30.27,West,259,0.0,0.0,76,0.00,,,0.00,Wunderground v.1.15,2013-01-28 23:30:00,
2013-01-28 18:35:00,51.8,44.8,30.27,West,259,0.0,0.0,77,0.00,,,0.00,Wunderground v.1.15,2013-01-28 23:35:00,
2013-01-28 18:40:00,51.5,44.5,30.27,West,259,0.0,0.0,77,0.00,,,0.00,Wunderground v.1.15,2013-01-28 23:40:00,
2013-01-28 18:45:00,51.2,44.6,30.27,West,259,0.0,0.0,78,0.00,,,0.00,Wunderground v.1.15,2013-01-28 23:45:00,
2013-01-28 18:50:00,50.9,44.3,30.27,West,259,0.0,0.0,78,0.00,,,0.00,Wunderground v.1.15,2013-01-28 23:50:00,
2013-01-28 19:00:00,50.5,44.2,30.27,West,259,0.0,0.0,79,0.00,,,0.00,Wunderground v.1.15,2013-01-29 00:00:00,
2013-01-28 19:05:00,50.4,44.5,30.27,West,259,0.0,0.0,80,0.00,,,0.00,Wunderground v.1.15,2013-01-29 00:05:00,
2013-01-28 19:10:00,50.3,44.4,30.27,West,259,0.0,0.0,80,0.00,,,0.00,Wunderground v.1.15,2013-01-29 00:10:00,
2013-01-28 19:15:00,50.1,44.5,30.27,West,259,0.0,0.0,81,0.00,,,0.00,Wunderground v.1.15,2013-01-29 00:15:00,
2013-01-28 19:20:00,50.0,44.4,30.27,West,259,0.0,0.0,81,0.00,,,0.00,Wunderground v.1.15,2013-01-29 00:20:00,
2013-01-28 19:25:00,49.8,44.2,30.27,West,259,0.0,0.0,81,0.00,,,0.00,Wunderground v.1.15,2013-01-29 00:25:00,
2013-01-28 19:35:00,49.6,44.3,30.27,West,259,0.0,0.0,82,0.00,,,0.00,Wunderground v.1.15,2013-01-29 00:35:00,
2013-01-28 19:40:00,49.5,44.2,30.27,West,259,0.0,0.0,82,0.00,,,0.00,Wunderground v.1.15,2013-01-29 00:40:00,
2013-01-28 19:45:00,49.4,44.1,30.27,West,259,0.0,0.0,82,0.00,,,0.00,Wunderground v.1.15,2013-01-29 00:45:00,
2013-01-28 19:50:00,49.2,43.9,30.27,West,259,0.0,0.0,82,0.00,,,0.00,Wunderground v.1.15,2013-01-29 00:50:00,
2013-01-28 19:55:00,49.2,43.9,30.26,West,259,0.0,0.0,82,0.00,,,0.00,Wunderground v.1.15,2013-01-29 00:55:00,
2013-01-28 20:05:00,49.2,44.3,30.26,West,259,0.0,0.0,83,0.00,,,0.00,Wunderground v.1.15,2013-01-29 01:05:00,
2013-01-28 20:10:00,49.1,44.2,30.26,West,259,0.0,0.0,83,0.00,,,0.00,Wunderground v.1.15,2013-01-29 01:10:00,
2013-01-28 20:20:00,49.1,44.5,30.26,West,259,0.0,0.0,84,0.00,,,0.00,Wunderground v.1.15,2013-01-29 01:20:00,
2013-01-28 20:30:00,49.1,44.8,30.26,West,259,0.0,0.0,85,0.00,,,0.00,Wunderground v.1.15,2013-01-29 01:30:00,
2013-01-28 20:35:00,49.1,44.8,30.26,West,259,0.0,0.0,85,0.00,,,0.00,Wunderground v.1.15,2013-01-29 01:35:00,
2013-01-28 20:40:00,49.2,44.9,30.26,West,259,0.0,0.0,85,0.00,,,0.00,Wunderground v.1.15,2013-01-29 01:40:00,
2013-01-28 20:45:00,49.2,45.2,30.26,West,259,0.0,0.0,86,0.00,,,0.00,Wunderground v.1.15,2013-01-29 01:45:00,
2013-01-28 20:50:00,49.2,45.2,30.26,West,259,0.0,0.0,86,0.00,,,0.00,Wunderground v.1.15,2013-01-29 01:50:00,
2013-01-28 20:55:00,49.3,45.3,30.25,West,259,0.0,0.0,86,0.00,,,0.00,Wunderground v.1.15,2013-01-29 01:55:00,
2013-01-28 21:00:00,49.4,45.4,30.25,West,259,0.0,0.0,86,0.00,,,0.00,Wunderground v.1.15,2013-01-29 02:00:00,
2013-01-28 21:05:00,49.4,45.4,30.25,West,259,0.0,0.0,86,0.00,,,0.00,Wunderground v.1.15,2013-01-29 02:05:00,
2013-01-28 21:10:00,49.5,45.5,30.25,West,259,0.0,0.0,86,0.00,,,0.00,Wunderground v.1.15,2013-01-29 02:10:00,
2013-01-28 21:15:00,49.5,45.5,30.25,West,259,0.0,0.0,86,0.00,,,0.00,Wunderground v.1.15,2013-01-29 02:15:00,
2013-01-28 21:20:00,49.6,45.6,30.25,West,259,0.0,0.0,86,0.00,,,0.00,Wunderground v.1.15,2013-01-29 02:20:00,
2013-01-28 21:25:00,49.6,45.6,30.25,West,259,0.0,0.0,86,0.00,,,0.00,Wunderground v.1.15,2013-01-29 02:25:00,
2013-01-28 21:30:00,49.6,45.6,30.25,West,259,0.0,0.0,86,0.00,,,0.00,Wunderground v.1.15,2013-01-29 02:30:00,
2013-01-28 21:40:00,49.7,45.7,30.25,West,259,0.0,0.0,86,0.00,,,0.00,Wunderground v.1.15,2013-01-29 02:40:00,
2013-01-28 21:45:00,49.7,45.7,30.25,West,259,0.0,0.0,86,0.00,,,0.00,Wunderground v.1.15,2013-01-29 02:45:00,
2013-01-28 21:50:00,49.7,45.7,30.25,West,259,0.0,0.0,86,0.00,,,0.00,Wunderground v.1.15,2013-01-29 02:50:00,
2013-01-28 21:55:00,49.8,46.1,30.25,West,259,0.0,0.0,87,0.00,,,0.00,Wunderground v.1.15,2013-01-29 02:55:00,
2013-01-28 22:00:00,49.9,46.2,30.25,West,259,0.0,0.0,87,0.00,,,0.00,Wunderground v.1.15,2013-01-29 03:00:00,
2013-01-28 22:10:00,50.1,46.7,30.25,West,259,0.0,0.0,88,0.00,,,0.00,Wunderground v.1.15,2013-01-29 03:10:00,
2013-01-28 22:15:00,50.2,46.8,30.25,West,259,0.0,0.0,88,0.00,,,0.00,Wunderground v.1.15,2013-01-29 03:15:00,
2013-01-28 22:20:00,50.3,46.9,30.24,West,259,0.0,0.0,88,0.00,,,0.00,Wunderground v.1.15,2013-01-29 03:20:00,
2013-01-28 22:25:00,50.4,47.0,30.24,West,259,0.0,0.0,88,0.00,,,0.00,Wunderground v.1.15,2013-01-29 03:25:00,
2013-01-28 22:30:00,50.4,47.0,30.24,West,259,0.0,0.0,88,0.00,,,0.00,Wunderground v.1.15,2013-01-29 03:30:00,
2013-01-28 22:40:00,50.6,47.2,30.24,WSW,244,0.0,0.0,88,0.00,,,0.00,Wunderground v.1.15,2013-01-29 03:40:00,
2013-01-28 22:45:00,50.6,47.2,30.24,WSW,244,0.0,0.0,88,0.00,,,0.00,Wunderground v.1.15,2013-01-29 03:45:00,
2013-01-28 22:50:00,50.6,47.2,30.24,WSW,244,0.0,0.0,88,0.00,,,0.00,Wunderground v.1.15,2013-01-29 03:50:00,
2013-01-28 22:55:00,50.6,46.9,30.24,WSW,244,0.0,0.0,87,0.00,,,0.00,Wunderground v.1.15,2013-01-29 03:55:00,
2013-01-28 23:00:00,50.6,46.9,30.24,SSW,212,0.0,1.0,87,0.00,,,0.00,Wunderground v.1.15,2013-01-29 04:00:00,
2013-01-28 23:10:00,50.5,46.8,30.23,SSW,212,0.0,0.0,87,0.00,,,0.00,Wunderground v.1.15,2013-01-29 04:10:00,
2013-01-28 23:15:00,50.4,46.7,30.23,SSW,212,0.0,0.0,87,0.00,,,0.00,Wunderground v.1.15,2013-01-29 04:15:00,
2013-01-28 23:20:00,50.3,46.9,30.23,SSW,212,0.0,0.0,88,0.00,,,0.00,Wunderground v.1.15,2013-01-29 04:20:00,
2013-01-28 23:25:00,50.2,46.8,30.23,SSW,212,0.0,0.0,88,0.00,,,0.00,Wunderground v.1.15,2013-01-29 04:25:00,
2013-01-28 23:30:00,50.1,46.7,30.23,SSW,211,0.0,0.0,88,0.00,,,0.00,Wunderground v.1.15,2013-01-29 04:30:00,
2013-01-28 23:35:00,50.1,47.0,30.23,SSW,212,0.0,0.0,89,0.00,,,0.00,Wunderground v.1.15,2013-01-29 04:35:00,
2013-01-28 23:45:00,50.0,46.9,30.23,SSW,212,0.0,0.0,89,0.00,,,0.00,Wunderground v.1.15,2013-01-29 04:45:00,
2013-01-28 23:50:00,49.9,46.8,30.23,SSW,212,0.0,0.0,89,0.00,,,0.00,Wunderground v.1.15,2013-01-29 04:50:00,
2013-01-28 23:55:00,49.9,47.1,30.23,SSW,212,0.0,0.0,90,0.00,,,0.00,Wunderground v.1.15,2013-01-29 04:55:00,